WAT615 KCMH-KJAX

Flight info

Callsign WAT615
Flight time 1h 35m
Altitude 39000
Route POBSE OHIOS SPA ALD ESENT LUNNI1
Aircraft A339/H-SADE1E2E3GHIJ3J5M1P2RWXY/LB2D1

Departure

Time 2026-05-06 12:06
Airport John Glenn Columbus International Airport (KCMH)

Arrival

Time 2026-05-06 13:41
Airport Jacksonville International Airport (KJAX)
Time Latitude Longitude Altitude Speed Heading
2026-05-06 11:26 39.99847 -82.88180 819 ft 0 kts 184°
2026-05-06 11:54 39.99849 -82.88180 819 ft 1 kts 185°
2026-05-06 11:54 39.99864 -82.88178 819 ft 2 kts 184°
2026-05-06 11:55 39.99879 -82.88177 819 ft 2 kts 184°
2026-05-06 11:55 39.99894 -82.88175 819 ft 2 kts 184°
2026-05-06 11:55 39.99908 -82.88174 819 ft 2 kts 184°
2026-05-06 11:55 39.99918 -82.88172 818 ft 2 kts 183°
2026-05-06 11:56 39.99933 -82.88174 818 ft 2 kts 165°
2026-05-06 11:56 39.99947 -82.88180 818 ft 2 kts 152°
2026-05-06 11:56 39.99959 -82.88191 818 ft 2 kts 138°
2026-05-06 11:56 39.99970 -82.88205 819 ft 2 kts 124°
2026-05-06 11:57 39.99976 -82.88222 819 ft 2 kts 110°
2026-05-06 11:57 39.99980 -82.88240 819 ft 1 kts 96°
2026-05-06 11:57 39.99981 -82.88247 819 ft 0 kts 94°
2026-05-06 11:59 39.99981 -82.88243 819 ft 1 kts 94°
2026-05-06 11:59 39.99979 -82.88217 819 ft 4 kts 95°
2026-05-06 11:59 39.99976 -82.88168 818 ft 6 kts 95°
2026-05-06 12:00 39.99971 -82.88093 817 ft 9 kts 94°
2026-05-06 12:00 39.99965 -82.87997 816 ft 11 kts 94°
2026-05-06 12:00 39.99934 -82.87908 816 ft 11 kts 146°
2026-05-06 12:00 39.99857 -82.87894 817 ft 11 kts 181°
2026-05-06 12:01 39.99775 -82.87901 818 ft 11 kts 184°
2026-05-06 12:01 39.99693 -82.87909 819 ft 11 kts 184°
2026-05-06 12:01 39.99612 -82.87907 820 ft 10 kts 152°
2026-05-06 12:01 39.99586 -82.87812 819 ft 12 kts 102°
2026-05-06 12:02 39.99571 -82.87698 819 ft 13 kts 95°
2026-05-06 12:02 39.99563 -82.87572 818 ft 14 kts 94°
2026-05-06 12:02 39.99555 -82.87435 818 ft 15 kts 94°
2026-05-06 12:02 39.99531 -82.87312 817 ft 13 kts 143°
2026-05-06 12:03 39.99441 -82.87296 818 ft 12 kts 184°
2026-05-06 12:03 39.99355 -82.87307 819 ft 12 kts 189°
2026-05-06 12:03 39.99265 -82.87323 820 ft 13 kts 185°
2026-05-06 12:03 39.99191 -82.87350 821 ft 10 kts 222°
2026-05-06 12:04 39.99173 -82.87444 821 ft 11 kts 272°
2026-05-06 12:04 39.99175 -82.87519 821 ft 0 kts 272°
2026-05-06 12:04 39.99176 -82.87528 821 ft 1 kts 272°
2026-05-06 12:04 39.99176 -82.87551 821 ft 3 kts 272°
2026-05-06 12:05 39.99187 -82.87775 822 ft 56 kts 274°
2026-05-06 12:05 39.99234 -82.88563 822 ft 115 kts 274°
2026-05-06 12:05 39.99303 -82.89817 833 ft 161 kts 276°
2026-05-06 12:05 39.99378 -82.91320 1231 ft 170 kts 277°
2026-05-06 12:06 39.99478 -82.92853 1814 ft 172 kts 277°
2026-05-06 12:06 39.99574 -82.94392 2428 ft 173 kts 272°
2026-05-06 12:06 39.99176 -82.95886 2800 ft 187 kts 228°
2026-05-06 12:06 39.98032 -82.96748 3083 ft 204 kts 190°
2026-05-06 12:07 39.96590 -82.96512 3368 ft 219 kts 150°
2026-05-06 12:07 39.95538 -82.95064 3662 ft 233 kts 109°
2026-05-06 12:07 39.95319 -82.92927 4007 ft 247 kts 88°
2026-05-06 12:07 39.95118 -82.90626 4334 ft 266 kts 113°
2026-05-06 12:08 39.93949 -82.88760 4837 ft 274 kts 149°
2026-05-06 12:08 39.92199 -82.87928 5580 ft 272 kts 168°
2026-05-06 12:08 39.90366 -82.87337 6310 ft 274 kts 167°
2026-05-06 12:08 39.88530 -82.86620 7037 ft 276 kts 164°
2026-05-06 12:09 39.86716 -82.85770 7746 ft 278 kts 162°
2026-05-06 12:09 39.84928 -82.84833 8436 ft 282 kts 161°
2026-05-06 12:09 39.83114 -82.83831 9128 ft 284 kts 161°
2026-05-06 12:09 39.81302 -82.82794 9786 ft 287 kts 162°
2026-05-06 12:10 39.79481 -82.81740 10381 ft 291 kts 162°
2026-05-06 12:10 39.77592 -82.80643 10701 ft 306 kts 162°
2026-05-06 12:10 39.75588 -82.79476 11006 ft 322 kts 161°
2026-05-06 12:10 39.73535 -82.78262 11509 ft 329 kts 161°
2026-05-06 12:11 39.71464 -82.77029 12115 ft 332 kts 161°
2026-05-06 12:11 39.69356 -82.75772 12743 ft 335 kts 161°
2026-05-06 12:11 39.67244 -82.74513 13361 ft 338 kts 161°
2026-05-06 12:11 39.65094 -82.73231 13974 ft 340 kts 162°
2026-05-06 12:12 39.62946 -82.71952 14576 ft 342 kts 162°
2026-05-06 12:12 39.60778 -82.70667 15149 ft 346 kts 162°
2026-05-06 12:12 39.58569 -82.69362 15733 ft 350 kts 163°
2026-05-06 12:12 39.56372 -82.68064 16316 ft 353 kts 163°
2026-05-06 12:13 39.54131 -82.66740 16896 ft 356 kts 163°
2026-05-06 12:13 39.51856 -82.65396 17462 ft 359 kts 163°
2026-05-06 12:13 39.49580 -82.64052 17997 ft 363 kts 163°
2026-05-06 12:13 39.47273 -82.62715 18528 ft 364 kts 167°
2026-05-06 12:14 39.44870 -82.61847 19056 ft 356 kts 179°
2026-05-06 12:14 39.42435 -82.61617 19590 ft 349 kts 189°
2026-05-06 12:14 39.40041 -82.61816 20095 ft 349 kts 192°
2026-05-06 12:14 39.37617 -82.62073 20585 ft 352 kts 192°
2026-05-06 12:15 39.35153 -82.62339 21080 ft 356 kts 192°
2026-05-06 12:15 39.32693 -82.62599 21566 ft 358 kts 192°
2026-05-06 12:15 39.30193 -82.62859 22050 ft 361 kts 192°
2026-05-06 12:15 39.27686 -82.63118 22522 ft 364 kts 192°
2026-05-06 12:16 39.25162 -82.63376 22981 ft 366 kts 192°
2026-05-06 12:16 39.22627 -82.63634 23417 ft 369 kts 193°
2026-05-06 12:16 39.20067 -82.63895 23853 ft 372 kts 193°
2026-05-06 12:16 39.17460 -82.64159 24315 ft 374 kts 193°
2026-05-06 12:17 39.14873 -82.64421 24778 ft 377 kts 193°
2026-05-06 12:17 39.12257 -82.64685 25229 ft 380 kts 193°
2026-05-06 12:17 39.09616 -82.64951 25668 ft 383 kts 193°
2026-05-06 12:17 39.06941 -82.65221 26101 ft 386 kts 193°
2026-05-06 12:18 39.04272 -82.65492 26524 ft 389 kts 193°
2026-05-06 12:18 39.01570 -82.65762 26940 ft 392 kts 194°
2026-05-06 12:18 38.98810 -82.66042 27358 ft 395 kts 194°
2026-05-06 12:18 38.96070 -82.66322 27760 ft 398 kts 194°
2026-05-06 12:19 38.93301 -82.66600 28152 ft 401 kts 194°
2026-05-06 12:19 38.90532 -82.66878 28529 ft 404 kts 194°
2026-05-06 12:19 38.87682 -82.67158 28919 ft 408 kts 194°
2026-05-06 12:19 38.84834 -82.67316 29297 ft 416 kts 191°
2026-05-06 12:20 38.81900 -82.67277 29659 ft 424 kts 188°
2026-05-06 12:20 38.78966 -82.67023 30024 ft 431 kts 185°
2026-05-06 12:20 38.75938 -82.66533 30382 ft 440 kts 182°
2026-05-06 12:20 38.72939 -82.65911 30733 ft 443 kts 182°
2026-05-06 12:21 38.69853 -82.65268 31069 ft 446 kts 182°
2026-05-06 12:21 38.66806 -82.64636 31396 ft 449 kts 181°
2026-05-06 12:21 38.63702 -82.63990 31729 ft 451 kts 181°
2026-05-06 12:21 38.60606 -82.63338 32051 ft 454 kts 181°
2026-05-06 12:22 38.57488 -82.62682 32366 ft 456 kts 181°
2026-05-06 12:22 38.54373 -82.62030 32680 ft 458 kts 181°
2026-05-06 12:22 38.51204 -82.61369 32995 ft 460 kts 181°
2026-05-06 12:22 38.48054 -82.60715 33301 ft 462 kts 181°
2026-05-06 12:23 38.44866 -82.60054 33603 ft 464 kts 182°
2026-05-06 12:23 38.41682 -82.59396 33896 ft 466 kts 182°
2026-05-06 12:23 38.38459 -82.58729 34249 ft 466 kts 182°
2026-05-06 12:23 38.35260 -82.58067 34637 ft 465 kts 182°
2026-05-06 12:24 38.32099 -82.57412 35013 ft 464 kts 182°
2026-05-06 12:24 38.28893 -82.56750 35366 ft 464 kts 182°
2026-05-06 12:24 38.25727 -82.56100 35687 ft 464 kts 182°
2026-05-06 12:24 38.22556 -82.55449 35994 ft 465 kts 182°
2026-05-06 12:25 38.19345 -82.54791 36288 ft 465 kts 183°
2026-05-06 12:25 38.16158 -82.54137 36602 ft 464 kts 183°
2026-05-06 12:25 38.12996 -82.53488 36950 ft 462 kts 184°
2026-05-06 12:25 38.09811 -82.52834 37299 ft 460 kts 184°
2026-05-06 12:26 38.06670 -82.52196 37603 ft 459 kts 185°
2026-05-06 12:26 38.03532 -82.51563 37839 ft 461 kts 185°
2026-05-06 12:26 38.00335 -82.50913 38048 ft 463 kts 185°
2026-05-06 12:26 37.97151 -82.50271 38253 ft 466 kts 185°
2026-05-06 12:27 37.93916 -82.49622 38436 ft 468 kts 185°
2026-05-06 12:27 37.90698 -82.48972 38598 ft 470 kts 185°
2026-05-06 12:27 37.87483 -82.48314 38751 ft 473 kts 185°
2026-05-06 12:27 37.84203 -82.47650 38889 ft 476 kts 185°
2026-05-06 12:28 37.77652 -82.46322 38936 ft 479 kts 185°
2026-05-06 12:28 37.71081 -82.44991 38953 ft 479 kts 185°
2026-05-06 12:29 37.64497 -82.43652 38900 ft 479 kts 185°
2026-05-06 12:29 37.57930 -82.42320 38885 ft 479 kts 185°
2026-05-06 12:30 37.51378 -82.41008 38897 ft 480 kts 185°
2026-05-06 12:30 37.44767 -82.39682 38902 ft 479 kts 185°
2026-05-06 12:31 37.38166 -82.38350 38916 ft 481 kts 185°
2026-05-06 12:31 37.31593 -82.37029 38928 ft 481 kts 185°
2026-05-06 12:32 37.25005 -82.35731 38936 ft 482 kts 185°
2026-05-06 12:32 37.18344 -82.34395 38944 ft 481 kts 186°
2026-05-06 12:33 37.11720 -82.33065 38958 ft 481 kts 186°
2026-05-06 12:33 37.05123 -82.31763 38964 ft 482 kts 186°
2026-05-06 12:34 36.98490 -82.30458 38973 ft 482 kts 185°
2026-05-06 12:34 36.91866 -82.29127 38983 ft 483 kts 185°
2026-05-06 12:35 36.85234 -82.27810 38989 ft 483 kts 185°
2026-05-06 12:35 36.78601 -82.26500 38991 ft 484 kts 185°
2026-05-06 12:36 36.71923 -82.25194 38995 ft 485 kts 185°
2026-05-06 12:36 36.65244 -82.23865 38994 ft 487 kts 185°
2026-05-06 12:37 36.58515 -82.22547 38989 ft 488 kts 185°
2026-05-06 12:37 36.51756 -82.21232 38980 ft 490 kts 185°
2026-05-06 12:38 36.45046 -82.19907 38977 ft 491 kts 185°
2026-05-06 12:38 36.38261 -82.18592 38981 ft 491 kts 185°
2026-05-06 12:39 36.31533 -82.17275 38988 ft 493 kts 185°
2026-05-06 12:39 36.24730 -82.15962 38990 ft 494 kts 184°
2026-05-06 12:40 36.17932 -82.14623 38990 ft 494 kts 184°
2026-05-06 12:40 36.11161 -82.13304 38994 ft 494 kts 185°
2026-05-06 12:41 36.04393 -82.12002 39008 ft 494 kts 184°
2026-05-06 12:41 35.97555 -82.10680 39038 ft 495 kts 184°
2026-05-06 12:42 35.90772 -82.09366 39064 ft 496 kts 184°
2026-05-06 12:42 35.83939 -82.08042 39067 ft 496 kts 184°
2026-05-06 12:43 35.77109 -82.06729 39054 ft 496 kts 185°
2026-05-06 12:43 35.70222 -82.05420 39045 ft 496 kts 184°
2026-05-06 12:44 35.63316 -82.04098 39033 ft 496 kts 184°
2026-05-06 12:44 35.56523 -82.02783 39029 ft 496 kts 184°
2026-05-06 12:45 35.49674 -82.01481 39025 ft 497 kts 184°
2026-05-06 12:46 35.39439 -81.99532 39019 ft 498 kts 184°
2026-05-06 12:46 35.32570 -81.98227 39017 ft 498 kts 184°
2026-05-06 12:47 35.25732 -81.96931 39014 ft 498 kts 184°
2026-05-06 12:47 35.18884 -81.95631 39013 ft 500 kts 184°
2026-05-06 12:48 35.11993 -81.94327 39013 ft 502 kts 183°
2026-05-06 12:48 35.05069 -81.92997 39014 ft 505 kts 182°
2026-05-06 12:49 34.98121 -81.91047 39017 ft 515 kts 176°
2026-05-06 12:49 34.91181 -81.88787 39017 ft 516 kts 177°
2026-05-06 12:50 34.84216 -81.86556 39023 ft 516 kts 176°
2026-05-06 12:50 34.77205 -81.84306 39017 ft 516 kts 176°
2026-05-06 12:51 34.70248 -81.82076 39032 ft 517 kts 176°
2026-05-06 12:51 34.63275 -81.79843 39046 ft 517 kts 175°
2026-05-06 12:52 34.56327 -81.77618 39055 ft 517 kts 176°
2026-05-06 12:52 34.49358 -81.75400 39059 ft 518 kts 175°
2026-05-06 12:53 34.42359 -81.73179 39061 ft 519 kts 175°
2026-05-06 12:53 34.35487 -81.71001 39064 ft 519 kts 175°
2026-05-06 12:54 34.28494 -81.68788 39068 ft 518 kts 175°
2026-05-06 12:54 34.21549 -81.66595 39076 ft 518 kts 175°
2026-05-06 12:55 34.14575 -81.64397 39086 ft 518 kts 175°
2026-05-06 12:55 34.07591 -81.62198 39089 ft 518 kts 175°
2026-05-06 12:56 34.00593 -81.60000 39089 ft 519 kts 175°
2026-05-06 12:56 33.93597 -81.57806 39087 ft 519 kts 175°
2026-05-06 12:57 33.86582 -81.55611 39076 ft 519 kts 175°
2026-05-06 12:57 33.79594 -81.53429 39070 ft 519 kts 175°
2026-05-06 12:58 33.72716 -81.51285 39075 ft 520 kts 175°
2026-05-06 12:58 33.65692 -81.49095 39082 ft 520 kts 175°
2026-05-06 12:59 33.58709 -81.46922 39083 ft 520 kts 175°
2026-05-06 12:59 33.51706 -81.44750 39083 ft 519 kts 175°
2026-05-06 13:00 33.44694 -81.42580 39083 ft 519 kts 175°
2026-05-06 13:00 33.37694 -81.40417 39081 ft 520 kts 175°
2026-05-06 13:01 33.30722 -81.38265 39081 ft 520 kts 175°
2026-05-06 13:01 33.23705 -81.36101 39084 ft 520 kts 175°
2026-05-06 13:02 33.16659 -81.33933 39085 ft 520 kts 175°
2026-05-06 13:02 33.09669 -81.31789 39090 ft 519 kts 175°
2026-05-06 13:03 33.02644 -81.29613 38695 ft 522 kts 173°
2026-05-06 13:03 32.99150 -81.28303 38283 ft 529 kts 169°
2026-05-06 13:03 32.95694 -81.26803 37816 ft 532 kts 168°
2026-05-06 13:03 32.92205 -81.25250 37312 ft 533 kts 168°
2026-05-06 13:04 32.88750 -81.23708 36637 ft 534 kts 168°
2026-05-06 13:04 32.85261 -81.22154 36013 ft 532 kts 168°
2026-05-06 13:04 32.81767 -81.20604 35425 ft 530 kts 167°
2026-05-06 13:04 32.79499 -81.19600 35046 ft 528 kts 167°
2026-05-06 13:05 32.74889 -81.17567 34267 ft 525 kts 167°
2026-05-06 13:05 32.71481 -81.16065 33704 ft 522 kts 167°
2026-05-06 13:05 32.68117 -81.14586 33321 ft 515 kts 167°
2026-05-06 13:05 32.64768 -81.13116 32975 ft 513 kts 167°
2026-05-06 13:06 32.61406 -81.11645 32651 ft 512 kts 167°
2026-05-06 13:06 32.58081 -81.10191 32304 ft 509 kts 167°
2026-05-06 13:06 32.54802 -81.08755 31949 ft 506 kts 167°
2026-05-06 13:06 32.51483 -81.07304 31583 ft 504 kts 167°
2026-05-06 13:07 32.48231 -81.05882 31235 ft 501 kts 166°
2026-05-06 13:07 32.44957 -81.04452 30874 ft 498 kts 166°
2026-05-06 13:07 32.41731 -81.03044 30511 ft 495 kts 166°
2026-05-06 13:07 32.38480 -81.01627 30140 ft 492 kts 166°
2026-05-06 13:08 32.35294 -81.00238 29770 ft 488 kts 166°
2026-05-06 13:08 32.32094 -80.98845 29404 ft 485 kts 166°
2026-05-06 13:08 32.28960 -80.97482 29050 ft 481 kts 166°
2026-05-06 13:08 32.25847 -80.96130 28712 ft 478 kts 165°
2026-05-06 13:09 32.22698 -80.94762 28359 ft 475 kts 165°
2026-05-06 13:09 32.19632 -80.93432 28010 ft 472 kts 166°
2026-05-06 13:09 32.16485 -80.92455 27628 ft 458 kts 180°
2026-05-06 13:09 32.13389 -80.92442 27269 ft 438 kts 196°
2026-05-06 13:10 32.10448 -80.93205 26918 ft 425 kts 203°
2026-05-06 13:10 32.07638 -80.94131 26572 ft 420 kts 204°
2026-05-06 13:10 32.04849 -80.95064 26231 ft 417 kts 204°
2026-05-06 13:10 32.02150 -80.95950 25902 ft 414 kts 204°
2026-05-06 13:11 31.99411 -80.96828 25571 ft 411 kts 203°
2026-05-06 13:11 31.96627 -80.97708 25234 ft 407 kts 203°
2026-05-06 13:11 31.93906 -80.98562 24897 ft 404 kts 202°
2026-05-06 13:11 31.91317 -80.99369 24571 ft 401 kts 202°
2026-05-06 13:12 31.88616 -81.00210 24221 ft 398 kts 202°
2026-05-06 13:12 31.85958 -81.01038 23897 ft 395 kts 202°
2026-05-06 13:12 31.83299 -81.01878 23543 ft 392 kts 202°
2026-05-06 13:12 31.80656 -81.02717 23175 ft 390 kts 202°
2026-05-06 13:13 31.78071 -81.03539 22819 ft 388 kts 202°
2026-05-06 13:13 31.75465 -81.04367 22462 ft 386 kts 202°
2026-05-06 13:13 31.72879 -81.05189 22108 ft 384 kts 202°
2026-05-06 13:13 31.70286 -81.06013 21753 ft 382 kts 201°
2026-05-06 13:14 31.67722 -81.06826 21407 ft 380 kts 201°
2026-05-06 13:14 31.65189 -81.07628 21051 ft 379 kts 201°
2026-05-06 13:14 31.62636 -81.08436 20682 ft 377 kts 201°
2026-05-06 13:14 31.60113 -81.09235 20311 ft 376 kts 201°
2026-05-06 13:15 31.57599 -81.10033 19938 ft 376 kts 201°
2026-05-06 13:15 31.55052 -81.10841 19558 ft 375 kts 201°
2026-05-06 13:15 31.52549 -81.11634 19183 ft 374 kts 201°
2026-05-06 13:15 31.50043 -81.12428 18807 ft 373 kts 201°
2026-05-06 13:16 31.47525 -81.13226 18404 ft 373 kts 201°
2026-05-06 13:16 31.45024 -81.14017 18005 ft 372 kts 201°
2026-05-06 13:16 31.42538 -81.14802 17621 ft 372 kts 201°
2026-05-06 13:16 31.40042 -81.15589 17240 ft 370 kts 201°
2026-05-06 13:17 31.37542 -81.16378 16860 ft 369 kts 201°
2026-05-06 13:17 31.35094 -81.17151 16490 ft 368 kts 201°
2026-05-06 13:17 31.32612 -81.17935 16114 ft 367 kts 201°
2026-05-06 13:17 31.30142 -81.18713 15741 ft 365 kts 201°
2026-05-06 13:18 31.27710 -81.19478 15370 ft 362 kts 201°
2026-05-06 13:18 31.25269 -81.20245 15004 ft 361 kts 200°
2026-05-06 13:18 31.22846 -81.20991 14643 ft 359 kts 198°
2026-05-06 13:18 31.20413 -81.21565 14287 ft 358 kts 195°
2026-05-06 13:19 31.17946 -81.22079 13929 ft 355 kts 195°
2026-05-06 13:19 31.15543 -81.22578 13577 ft 352 kts 194°
2026-05-06 13:19 31.13142 -81.23074 13224 ft 350 kts 194°
2026-05-06 13:19 31.10723 -81.23576 12867 ft 348 kts 194°
2026-05-06 13:20 31.08347 -81.24071 12516 ft 347 kts 194°
2026-05-06 13:20 31.05974 -81.24565 12164 ft 344 kts 194°
2026-05-06 13:20 31.03645 -81.25051 11816 ft 341 kts 193°
2026-05-06 13:20 31.01291 -81.25538 11463 ft 339 kts 193°
2026-05-06 13:21 30.98987 -81.26014 11117 ft 337 kts 193°
2026-05-06 13:21 30.96705 -81.26485 10773 ft 333 kts 193°
2026-05-06 13:21 30.94419 -81.26958 10508 ft 328 kts 193°
2026-05-06 13:21 30.92186 -81.27419 10226 ft 323 kts 193°
2026-05-06 13:22 30.90003 -81.27872 10051 ft 316 kts 193°
2026-05-06 13:22 30.87853 -81.28319 10004 ft 305 kts 193°
2026-05-06 13:22 30.85798 -81.28745 9999 ft 298 kts 193°
2026-05-06 13:22 30.83710 -81.29179 9998 ft 300 kts 193°
2026-05-06 13:23 30.81737 -81.29881 9991 ft 296 kts 213°
2026-05-06 13:23 30.80198 -81.31410 10001 ft 291 kts 237°
2026-05-06 13:23 30.79322 -81.33484 10005 ft 286 kts 259°
2026-05-06 13:23 30.79193 -81.35752 10006 ft 283 kts 280°
2026-05-06 13:24 30.79810 -81.37920 10008 ft 282 kts 301°
2026-05-06 13:24 30.81030 -81.39706 10015 ft 282 kts 313°
2026-05-06 13:24 30.82237 -81.41487 10003 ft 282 kts 300°
2026-05-06 13:24 30.82889 -81.43623 10001 ft 284 kts 278°
2026-05-06 13:25 30.82953 -81.45921 9988 ft 285 kts 272°
2026-05-06 13:25 30.82930 -81.48220 9978 ft 285 kts 271°
2026-05-06 13:25 30.82892 -81.50516 9969 ft 285 kts 271°
2026-05-06 13:25 30.82848 -81.52826 9963 ft 284 kts 271°
2026-05-06 13:26 30.82801 -81.55128 9986 ft 285 kts 270°
2026-05-06 13:26 30.82750 -81.57416 10008 ft 285 kts 270°
2026-05-06 13:26 30.82700 -81.59701 10019 ft 285 kts 270°
2026-05-06 13:26 30.82647 -81.62026 10024 ft 285 kts 270°
2026-05-06 13:27 30.82595 -81.64327 10026 ft 285 kts 270°
2026-05-06 13:27 30.82543 -81.66611 10028 ft 285 kts 270°
2026-05-06 13:27 30.82490 -81.68902 10028 ft 285 kts 270°
2026-05-06 13:27 30.82435 -81.71249 10028 ft 284 kts 270°
2026-05-06 13:28 30.82382 -81.73539 10028 ft 285 kts 270°
2026-05-06 13:28 30.82327 -81.75864 10028 ft 285 kts 270°
2026-05-06 13:28 30.82273 -81.78145 10028 ft 285 kts 270°
2026-05-06 13:28 30.82217 -81.80461 10028 ft 285 kts 270°
2026-05-06 13:29 30.82163 -81.82744 10028 ft 285 kts 270°
2026-05-06 13:29 30.82107 -81.85060 10028 ft 285 kts 270°
2026-05-06 13:29 30.82050 -81.87350 10028 ft 285 kts 270°
2026-05-06 13:29 30.81992 -81.89671 10024 ft 285 kts 270°
2026-05-06 13:30 30.81934 -81.91953 10017 ft 285 kts 270°
2026-05-06 13:30 30.81876 -81.94260 9854 ft 287 kts 270°
2026-05-06 13:30 30.81818 -81.96562 9546 ft 287 kts 270°
2026-05-06 13:30 30.81759 -81.98897 9249 ft 287 kts 270°
2026-05-06 13:31 30.81700 -82.01194 9076 ft 281 kts 270°
2026-05-06 13:31 30.81642 -82.03409 9071 ft 269 kts 270°
2026-05-06 13:31 30.81586 -82.05532 9066 ft 258 kts 270°
2026-05-06 13:31 30.81532 -82.07566 9057 ft 247 kts 269°
2026-05-06 13:32 30.81145 -82.09476 9026 ft 248 kts 239°
2026-05-06 13:32 30.79842 -82.10810 8878 ft 258 kts 204°
2026-05-06 13:32 30.78058 -82.11037 8493 ft 269 kts 168°
2026-05-06 13:32 30.76429 -82.09998 8150 ft 275 kts 132°
2026-05-06 13:33 30.75580 -82.08028 7852 ft 275 kts 96°
2026-05-06 13:33 30.75802 -82.05871 7592 ft 271 kts 67°
2026-05-06 13:33 30.76430 -82.03814 7242 ft 276 kts 80°
2026-05-06 13:33 30.76330 -82.01585 6910 ft 279 kts 108°
2026-05-06 13:34 30.75358 -81.99658 6620 ft 278 kts 136°
2026-05-06 13:34 30.73768 -81.98448 6316 ft 276 kts 158°
2026-05-06 13:34 30.72045 -81.97489 6060 ft 276 kts 150°
2026-05-06 13:34 30.70473 -81.96232 6025 ft 266 kts 142°
2026-05-06 13:35 30.69106 -81.94856 6020 ft 256 kts 143°
2026-05-06 13:35 30.67669 -81.93733 6020 ft 244 kts 150°
2026-05-06 13:35 30.66248 -81.92696 5922 ft 239 kts 144°
2026-05-06 13:35 30.65003 -81.91444 5759 ft 236 kts 134°
2026-05-06 13:36 30.63925 -81.90030 5638 ft 230 kts 130°
2026-05-06 13:36 30.62926 -81.88616 5488 ft 221 kts 130°
2026-05-06 13:36 30.61964 -81.87266 5294 ft 211 kts 130°
2026-05-06 13:36 30.61037 -81.85995 5105 ft 203 kts 131°
2026-05-06 13:37 30.60127 -81.84768 4849 ft 200 kts 131°
2026-05-06 13:37 30.59218 -81.83548 4569 ft 199 kts 131°
2026-05-06 13:37 30.58311 -81.82333 4292 ft 198 kts 131°
2026-05-06 13:37 30.57422 -81.81140 3965 ft 200 kts 131°
2026-05-06 13:38 30.56502 -81.79903 3560 ft 203 kts 131°
2026-05-06 13:38 30.55574 -81.78656 3134 ft 205 kts 132°
2026-05-06 13:38 30.54647 -81.77410 2752 ft 204 kts 132°
2026-05-06 13:38 30.53721 -81.76158 2332 ft 202 kts 132°
2026-05-06 13:39 30.52825 -81.74943 1913 ft 200 kts 133°
2026-05-06 13:39 30.51914 -81.73725 1484 ft 198 kts 133°
2026-05-06 13:39 30.51022 -81.72523 826 ft 209 kts 133°
2026-05-06 13:39 30.50065 -81.71258 339 ft 204 kts 133°
2026-05-06 13:40 30.49188 -81.70047 81 ft 191 kts 133°
2026-05-06 13:40 30.48359 -81.68941 34 ft 161 kts 127°
2026-05-06 13:40 30.47720 -81.68129 34 ft 110 kts 122°
2026-05-06 13:40 30.47407 -81.67518 34 ft 65 kts 102°
2026-05-06 13:41 30.47410 -81.67137 34 ft 33 kts 83°
2026-05-06 13:41 30.47411 -81.66973 34 ft 10 kts 102°
2026-05-06 13:41 30.47402 -81.66927 34 ft 3 kts 90°
2026-05-06 13:41 30.47402 -81.66926 34 ft 0 kts 82°